星链-31763 (STARLINK-31763 )

导读

STARLINK-31763是美国太空探索技术公司Starlink卫星互联网项目的卫星,于北京时间2024年4月28日8时发射。该卫星属于星链星座组网卫星,旨在为全球提供高速低延迟互联网服务,尤其覆盖偏远地区,是Starlink低轨卫星互联网部署中的一员,进一步扩充了星链星座的卫星规模与服务覆盖能力。

Basic Information
目录编号:
59623
目录名称:
STARLINK-31763
国际标识:
2024-080Y
轨道中心:
EARTH
卫星名称:
星链-31763
卫星全名:
星链-31763 (STARLINK-31763 )
卫星状态:
在轨 (已飞行859 天)
发射日期:
2024-04-28 UTC
国别 :
美国 (US)
星等 :
--
Orbit Information
数据来源 国际轨道数据
星历时间: 2026-09-04T07:15:10+0800
11小时前
查看轨道信息
半长轴: 6861.199km
偏心率: 0.000121
轨道倾角: 43.002°
近地点辐角 264.591°
升交点赤经 111.464°
平近点角 95.480°
近地点: 482.231km
远地点: 483.893km
周期: 94.267分钟
每日圈数: 15.275757
Detailed Information
固有亮度:
5
最大亮度:
1.5
卫星平台:
Starlink v2.0 mini
覆盖范围:
全球
运营商:
太空探索技术公司
运营商所在国:
美国
制造商(研发单位):
太空探索技术公司
制造商所在国:
美国
使用方式:
暂无
Satellite Introduction
星链(Starlink)计划是由太空探索技术公司(SpaceX)提出的一个巨型低轨卫星互联网星座项目,计划在2019年至2024年间在太空搭建由约1.2万颗卫星组成的“星链”网络,其中1584颗将部署在地球上空550千米处的近地轨道,并从2020年开始工作。该卫星仍在工作。
2D Orbit Map
3D Orbit Map
Orbit Altitude Analysis Chart
Orbit Inclination Analysis Chart
Orbit Comprehensive Analysis Chart
View Comprehensive Chart
Conjunction Data List
Event ID Objects TCA Miss Dist (km) Collision Risk Probability Collision Risk Index (CRI) Action
CDM_260904-191705-962306-378721
2026-09-04T
19:17:03+0000
1.222 km
极远距离
2.859755E-6 低风险 0.44
CDM_260903-083005-962306-840522
2026-09-03T
08:30:42+0000
2.615 km
极远距离
1.577153E-6 低风险 0.39
CDM_260904-182905-962306-378721
2026-09-04T
18:29:58+0000
2.427 km
极远距离
5.126476E-7 极低风险 0.29